[[{"header":{"parameterUnit":"m.s-1","parameterCategory":1,"la1":30.2991,"la2":30.254,"lo1":-89.0895,"lo2":-89.0444,"dy":0.0017,"dx":0.0017,"nx":28,"ny":28,"refTime":"2023-10-16T09:00:00:Z","depth":0,"parameterNumber":2,"parameterNumberName":"U-component_of_WINDS"},"data":[0,0,0,0,0,0,0,0,0,0,0,0,0,0,0,0,0,0,0,0,0,0,0,0,0,0,0,0,0,0,0,0,0,0,0,0,0,0,0,0,0,0,0,0,0,0,0,0,0,0,0,0,0,0,0,0,0,0,2.5164,2.5164,0,2.5152,2.5152,2.5151,2.512,2.512,2.5119,2.5118,2.5105,2.5105,2.5105,0,0,0,0,0,0,0,0,0,0,0,0,0,2.5161,2.5161,2.5164,2.5164,2.5164,2.5152,2.5152,2.5151,2.512,2.512,2.5119,2.5118,2.5105,2.5105,2.5105,0,0,0,0,0,0,0,0,0,0,0,0,0,2.5157,2.5161,2.5164,2.5147,2.5145,2.5152,2.5152,2.5151,2.5121,2.512,2.5119,2.5118,2.5105,2.5105,2.5105,2.5127,0,0,2.5106,2.5107,0,0,0,0,0,0,0,0,2.5157,2.5157,2.5149,2.5148,2.5146,2.5137,2.5145,2.5143,2.5121,2.513,2.5118,2.5117,2.5116,2.5115,2.5115,2.5127,2.5126,2.5106,2.5107,2.5107,2.5107,0,0,0,0,0,0,0,2.5157,2.5157,2.5159,2.5149,2.5147,2.514,2.5138,2.5145,2.5129,2.5129,2.5127,2.5126,2.5115,2.5115,2.5115,2.5126,2.5106,2.5107,2.5107,2.5107,2.5156,2.5157,0,0,0,0,0,0,2.516,2.5158,2.5159,2.5159,2.5149,2.5141,2.5139,2.5141,2.5128,2.5126,2.5127,2.5124,2.5115,2.5114,2.5114,2.514,2.5107,2.5107,2.5107,2.5155,2.5156,2.5158,0,0,0,0,0,0,2.516,2.5161,2.516,2.5158,2.5157,2.5142,2.5144,2.5141,2.5141,2.5127,2.5124,2.513,2.5114,2.5114,2.5125,2.5139,2.5107,2.5108,2.5154,2.5155,2.5157,2.5191,0,0,0,0,0,0,2.516,2.5161,2.5169,2.5158,2.5157,2.5171,2.5145,2.5141,2.5142,2.5139,2.5129,2.5126,2.5113,2.5124,2.5125,2.5139,2.5108,2.5152,2.5155,2.5156,2.5188,2.5193,2.5198,0,0,0,0,0,2.516,2.5178,2.5169,2.517,2.5167,2.5171,2.5171,2.5156,2.5143,2.5151,2.5142,2.5126,2.5137,2.5126,2.5126,2.514,2.5151,2.5154,2.5156,2.5186,2.5192,2.5198,0,0,0,0,0,0,2.519,2.5176,2.5166,2.5181,2.5178,2.5166,2.5176,2.5163,2.5163,2.516,2.5141,2.5139,2.5153,2.5148,2.5135,2.5162,2.5142,2.5145,2.5165,2.517,2.5175,2.5176,2.5108,0,0,0,0,0,2.5198,2.5203,2.5191,2.5206,2.5205,2.5191,2.5192,2.5181,2.5177,2.5175,2.5167,2.5163,2.5166,2.5168,2.5169,2.5188,2.5186,2.5198,2.5203,2.5207,2.5209,2.522,2.5225,2.5166,2.5166,2.5165,0,0,2.5215,2.5209,2.5213,2.5211,2.5207,2.5213,2.5189,2.5196,2.5201,2.5176,2.5186,2.518,2.5175,2.519,2.5196,2.5186,2.5225,2.521,2.5213,2.5213,2.5223,2.5228,2.5233,2.5167,2.5167,2.5167,0,0,2.525,2.5245,2.5257,2.5254,2.5249,2.524,2.5243,2.5234,2.5229,2.5239,2.5222,2.5226,2.5231,2.5228,2.5228,2.5264,2.5249,2.5265,2.5289,2.5299,2.5304,2.5308,2.5322,2.5327,2.5267,2.5267,2.5267,0,2.5271,2.528,2.5265,2.5273,2.5274,2.5253,2.5265,2.5263,2.5259,2.5259,2.5248,2.5255,2.525,2.5265,2.5274,2.5274,2.5277,2.5265,2.5305,2.5309,2.5312,2.5325,2.533,2.5269,2.5269,2.5269,2.5269,0,2.5307,2.5313,2.5324,2.5321,2.5323,2.5333,2.532,2.5324,2.5313,2.5306,2.5317,2.5311,2.5311,2.5314,2.5303,2.5328,2.5322,2.5308,2.5288,2.532,2.5332,2.5336,2.5272,2.5271,2.5271,2.527,0,0,2.5358,2.5348,2.5353,2.5352,2.5346,2.535,2.536,2.5362,2.5365,2.5363,2.5372,2.5377,2.5365,2.5364,2.5354,2.5363,2.5393,2.5348,2.5348,2.5357,2.5421,2.5431,2.5437,2.5384,2.5385,2.5386,2.5421,0,2.539,2.5407,2.5395,2.5414,2.542,2.5402,2.5411,2.5408,2.5402,2.5406,2.5399,2.5404,2.5387,2.5387,2.5395,2.5388,2.5406,2.5385,2.5392,2.5392,2.5393,2.5443,2.5453,2.5487,2.5426,2.5426,2.5427,0,2.543,2.5431,2.5451,2.5446,2.5448,2.5456,2.5457,2.5461,2.5459,2.5453,2.5454,2.5441,2.5451,2.5432,2.5446,2.5433,2.5435,2.5432,2.5433,2.5433,2.5411,2.5444,2.5498,2.5503,2.5434,2.5433,2.5433,0,2.5466,2.5473,2.5486,2.5486,2.5479,2.5485,2.5483,2.5479,2.5481,2.5483,2.5484,2.5486,2.5487,2.5489,2.5478,2.5465,2.5494,2.5473,2.549,2.549,2.5496,2.5496,2.5551,2.5498,2.5498,2.5498,2.5498,0,2.5504,2.5516,2.5502,2.551,2.5524,2.5511,2.5526,2.5521,2.5518,2.5526,2.551,2.5517,2.5501,2.5507,2.5498,2.5512,2.5512,2.5509,2.5506,2.551,2.5511,2.5511,2.5508,2.5499,2.5499,2.5499,2.5499,0,2.5545,2.5536,2.5549,2.5543,2.5541,2.5552,2.5547,2.5554,2.5548,2.5557,2.5559,2.5548,2.5554,2.5544,2.5548,2.5542,2.5561,2.5555,2.5562,2.556,2.5578,2.5576,2.5635,2.5642,2.5585,2.5585,2.5586,0,2.557,2.558,2.5575,2.5579,2.5577,2.5584,2.5586,2.5574,2.5577,2.5576,2.5584,2.5589,2.5592,2.5603,2.5596,2.56,2.5593,2.5614,2.5594,2.5598,2.5594,2.5594,2.5595,2.5618,2.5618,2.5619,2.5619,0,2.5614,2.561,2.5614,2.5618,2.5622,2.5624,2.5625,2.5629,2.5616,2.5621,2.5627,2.563,2.5635,2.5641,2.5643,2.5641,2.5628,2.5626,2.563,2.5634,2.5638,2.5637,2.5573,2.5625,2.5624,2.5624,2.5623,2.5623,2.5648,2.5657,2.5655,2.5661,2.5661,2.5663,2.567,2.5665,2.567,2.5674,2.5666,2.5675,2.5674,2.5676,2.5675,2.5682,2.5673,2.5678,2.568,2.5682,2.5685,2.5638,2.5682,2.5682,2.5682,2.5682,2.5681,0,2.5692,2.5691,2.5697,2.5699,2.5704,2.5693,2.5694,2.5699,2.5707,2.5707,2.5711,2.5719,2.5725,2.5719,2.5724,2.573,2.5725,2.5732,2.5731,2.5731,2.5692,2.5688,2.5737,2.5737,2.5737,2.5737,2.5737,2.5737,2.5716,2.573,2.5726,2.574,2.5738,2.5747,2.5748,2.575,2.575,2.576,2.5765,2.5762,2.576,2.5765,2.577,2.5768,2.577,2.578,2.5776,2.5739,2.5734,2.5729,2.5725,2.578,2.578,2.5814,2.5815,2.5815]},{"header":{"parameterUnit":"m.s-1","parameterCategory":1,"la1":30.2991,"la2":30.254,"lo1":-89.0895,"lo2":-89.0444,"dy":0.0017,"dx":0.0017,"nx":28,"ny":28,"refTime":"2023-10-16T09:00:00:Z","depth":0,"parameterNumber":3,"parameterNumberName":"V-component_of_WINDS"},"data":[0,0,0,0,0,0,0,0,0,0,0,0,0,0,0,0,0,0,0,0,0,0,0,0,0,0,0,0,0,0,0,0,0,0,0,0,0,0,0,0,0,0,0,0,0,0,0,0,0,0,0,0,0,0,0,0,0,0,-5.8324,-5.8325,0,-5.8415,-5.8416,-5.8417,-5.842,-5.8419,-5.8418,-5.8417,-5.8505,-5.8509,-5.8512,0,0,0,0,0,0,0,0,0,0,0,0,0,-5.8148,-5.8151,-5.8324,-5.8325,-5.8326,-5.8415,-5.8416,-5.8418,-5.842,-5.8419,-5.8417,-5.8416,-5.8504,-5.8508,-5.8512,0,0,0,0,0,0,0,0,0,0,0,0,0,-5.823,-5.8152,-5.8323,-5.8338,-5.834,-5.8415,-5.8417,-5.8418,-5.842,-5.8419,-5.8417,-5.8416,-5.8503,-5.8508,-5.8513,-5.8578,0,0,-5.8528,-5.8531,0,0,0,0,0,0,0,0,-5.8225,-5.8237,-5.8335,-5.8337,-5.834,-5.8405,-5.8387,-5.8471,-5.8421,-5.839,-5.8417,-5.8415,-5.8473,-5.848,-5.8501,-5.8582,-5.8585,-5.8529,-5.8532,-5.8534,-5.8536,0,0,0,0,0,0,0,-5.822,-5.8233,-5.836,-5.8336,-5.8339,-5.8339,-5.8349,-5.8403,-5.8439,-5.8392,-5.8393,-5.8404,-5.8474,-5.8496,-5.8503,-5.8587,-5.8529,-5.8533,-5.8536,-5.8538,-5.8727,-5.8729,0,0,0,0,0,0,-5.8212,-5.8228,-5.8357,-5.8363,-5.8278,-5.8344,-5.8355,-5.8385,-5.8439,-5.8445,-5.8405,-5.8404,-5.8488,-5.8497,-5.8506,-5.8587,-5.8534,-5.8539,-5.8542,-5.8725,-5.8728,-5.873,0,0,0,0,0,0,-5.8208,-5.8223,-5.8353,-5.8295,-5.8312,-5.8348,-5.8383,-5.8388,-5.841,-5.8449,-5.8455,-5.8422,-5.8487,-5.8499,-5.8561,-5.859,-5.8541,-5.8546,-5.8723,-5.8726,-5.8729,-5.8747,0,0,0,0,0,0,-5.8203,-5.8222,-5.8247,-5.8296,-5.8315,-5.8407,-5.8385,-5.8391,-5.842,-5.8419,-5.8465,-5.8472,-5.8487,-5.8553,-5.8566,-5.8596,-5.855,-5.8721,-5.8724,-5.8728,-5.8744,-5.8751,-5.8756,0,0,0,0,0,-5.8197,-5.8247,-5.8249,-5.8264,-5.8348,-5.8409,-5.8419,-5.8438,-5.8422,-5.8448,-5.8473,-5.847,-5.8585,-5.8559,-5.8574,-5.8606,-5.8719,-5.8723,-5.8728,-5.8742,-5.8749,-5.8756,0,0,0,0,0,0,-5.8198,-5.8254,-5.8256,-5.8324,-5.8362,-5.8409,-5.8442,-5.8445,-5.8486,-5.8483,-5.8502,-5.8513,-5.8575,-5.8596,-5.8567,-5.8672,-5.865,-5.8657,-5.8656,-5.8663,-5.8669,-5.8662,-5.8554,0,0,0,0,0,-5.8207,-5.8253,-5.8299,-5.8354,-5.8374,-5.8405,-5.8432,-5.8443,-5.8482,-5.8497,-5.8527,-5.8564,-5.8608,-5.8637,-5.868,-5.8748,-5.8758,-5.8777,-5.8783,-5.8788,-5.8794,-5.8833,-5.8842,-5.8744,-5.8744,-5.8744,0,0,-5.8225,-5.8261,-5.8288,-5.8356,-5.8386,-5.8433,-5.8418,-5.8467,-5.8502,-5.8504,-5.8565,-5.8588,-5.8631,-5.8696,-5.8727,-5.8716,-5.8823,-5.8793,-5.8797,-5.88,-5.8838,-5.8847,-5.8855,-5.8747,-5.8747,-5.8746,0,0,-5.8281,-5.8313,-5.8364,-5.8396,-5.8444,-5.8464,-5.8477,-5.8524,-5.854,-5.8602,-5.8606,-5.8647,-5.8723,-5.8754,-5.8779,-5.885,-5.885,-5.8864,-5.8894,-5.8932,-5.8939,-5.8946,-5.8972,-5.8981,-5.887,-5.887,-5.887,0,-5.8296,-5.8368,-5.8389,-5.844,-5.847,-5.8477,-5.8529,-5.8558,-5.8616,-5.8636,-5.8625,-5.8722,-5.8751,-5.8825,-5.8843,-5.8863,-5.8877,-5.8858,-5.8937,-5.8944,-5.8951,-5.8976,-5.8985,-5.8871,-5.8871,-5.8871,-5.8871,0,-5.8385,-5.8435,-5.847,-5.8529,-5.8563,-5.8614,-5.8642,-5.8674,-5.8683,-5.8705,-5.8768,-5.8804,-5.8855,-5.8873,-5.8881,-5.8949,-5.8941,-5.8933,-5.8911,-5.8961,-5.8985,-5.8995,-5.8873,-5.8873,-5.8872,-5.8872,0,0,-5.8442,-5.8516,-5.8528,-5.8556,-5.8611,-5.8649,-5.87,-5.8753,-5.878,-5.882,-5.8864,-5.893,-5.8924,-5.8953,-5.8964,-5.8998,-5.9053,-5.8986,-5.8987,-5.8997,-5.9131,-5.9137,-5.9147,-5.9054,-5.9055,-5.9057,-5.9127,0,-5.8505,-5.8598,-5.862,-5.87,-5.8747,-5.8756,-5.8801,-5.8839,-5.8861,-5.8903,-5.8927,-5.8974,-5.8962,-5.898,-5.9013,-5.9039,-5.908,-5.9034,-5.9093,-5.9095,-5.9082,-5.916,-5.9165,-5.923,-5.9137,-5.9138,-5.9139,0,-5.859,-5.8636,-5.8721,-5.8772,-5.8792,-5.8832,-5.8883,-5.8923,-5.8967,-5.8981,-5.9015,-5.9024,-5.9078,-5.9054,-5.9128,-5.9097,-5.9122,-5.9139,-5.9142,-5.9148,-5.912,-5.9167,-5.9251,-5.9261,-5.9154,-5.9153,-5.9152,0,-5.8624,-5.8707,-5.8769,-5.8792,-5.8853,-5.8881,-5.8907,-5.895,-5.8981,-5.9025,-5.9045,-5.9094,-5.9121,-5.9158,-5.918,-5.9161,-5.9253,-5.923,-5.9266,-5.9265,-5.9284,-5.9282,-5.9372,-5.9301,-5.93,-5.93,-5.93,0,-5.8691,-5.8743,-5.8786,-5.8824,-5.8882,-5.8907,-5.8964,-5.899,-5.9028,-5.9071,-5.9081,-5.9121,-5.9148,-5.9191,-5.9209,-5.9268,-5.928,-5.9292,-5.9296,-5.9291,-5.929,-5.9308,-5.9304,-5.9303,-5.9302,-5.9302,-5.9301,0,-5.8739,-5.8769,-5.8838,-5.8891,-5.8906,-5.8947,-5.8991,-5.9029,-5.9053,-5.9107,-5.9121,-5.9158,-5.921,-5.9236,-5.93,-5.9312,-5.9379,-5.938,-5.9365,-5.9366,-5.94,-5.9397,-5.9505,-5.952,-5.9438,-5.9439,-5.944,0,-5.878,-5.882,-5.8879,-5.891,-5.8937,-5.8986,-5.9019,-5.9045,-5.9078,-5.9133,-5.9163,-5.9216,-5.926,-5.9343,-5.9375,-5.9424,-5.9426,-5.9461,-5.9433,-5.9428,-5.9427,-5.9425,-5.9429,-5.9465,-5.9466,-5.9467,-5.9467,0,-5.8849,-5.8863,-5.891,-5.8964,-5.9004,-5.9046,-5.9088,-5.9113,-5.9146,-5.9182,-5.9237,-5.9272,-5.9339,-5.9391,-5.9444,-5.947,-5.9474,-5.9476,-5.9487,-5.9482,-5.9472,-5.9478,-5.9378,-5.9473,-5.9473,-5.9472,-5.9472,-5.9472,-5.8895,-5.8932,-5.898,-5.9033,-5.9068,-5.9108,-5.9147,-5.9177,-5.9223,-5.9281,-5.9294,-5.9352,-5.9396,-5.9467,-5.9495,-5.954,-5.9533,-5.9548,-5.9552,-5.9555,-5.9558,-5.9465,-5.955,-5.955,-5.955,-5.955,-5.9549,0,-5.8965,-5.8997,-5.9046,-5.9106,-5.9148,-5.9152,-5.9199,-5.9233,-5.9285,-5.9327,-5.9371,-5.9435,-5.9487,-5.9524,-5.9576,-5.9605,-5.9609,-5.9618,-5.9616,-5.9622,-5.9561,-5.9547,-5.9615,-5.9615,-5.9615,-5.9615,-5.9615,-5.9615,-5.9006,-5.907,-5.909,-5.9172,-5.9203,-5.9262,-5.9289,-5.9326,-5.936,-5.9431,-5.9475,-5.95,-5.954,-5.9596,-5.9644,-5.9654,-5.9672,-5.9682,-5.9691,-5.9633,-5.9626,-5.962,-5.9606,-5.9686,-5.9686,-5.9749,-5.975,-5.975]}]]